Location: 22
(39.7117°N, 89.5929°W)
Time: 18:42:38
(UTC-05:00)

Vanguard 3 - Pass Details

Date: 05 February 2023
Orbit: 508 x 3249 km, 33.4° (Epoch: 30 March)

Event Time Altitude Azimuth Distance (km) Brightness Sun altitude
Rises 21:17:47 0° 270° (W) 4,766 11.8 -45.1°
Reaches altitude 10° 21:20:27 10° 267° (W) 4,079 11.2 -45.6°
Enters shadow 21:29:50 58° 224° (SW) 2,683 9.5 -47.3°
Maximum altitude 21:32:06 63° 190° (S) 2,737 - -47.7°
Drops below altitude 10° 21:50:28 10° 116° (ESE) 6,126 - -50.9°
Sets 21:55:32 0° 113° (ESE) 7,212 - -51.8°
